Location: Dackenheim
(49.5215°N, 8.1854°E)
Time: 11:54:51
(UTC+00:00)

BlueWalker 3 - Pass Details

Date: 25 January 2026
Orbit: 451 x 460 km, 53.2° (Epoch: 17 February)

Event Time Altitude Azimuth Distance (km) Brightness Sun altitude
Rises 18:12:07 0° 252° (WSW) 2,453 7.0 -19.4°
Reaches altitude 10° 18:14:15 10° 255° (WSW) 1,582 5.6 -19.7°
Maximum altitude 18:17:48 72° 339° (NNW) 479 1.7 -20.3°
Enters shadow 18:18:01 69° 12° (NNE) 488 1.7 -20.4°
